Location: Newark
(34.9850°N, 80.4472°W)
Time: 13:29:58
(UTC+00:00)

ISS - Visible Passes

Search period start: 27 January 2020 00:00
Search period end: 06 February 2020 00:00
Orbit: 416 x 423 km, 51.6° (Epoch: 28 January)

Date Brightness Start Highest point End Pass type
(mag) Time Alt. Az. Time Alt. Az. Time Alt. Az.
03 Feb -1.4 23:50:22 10° N 23:51:16 11° NNE 23:51:32 11° NNE visible
05 Feb -1.7 00:37:51 10° NNW 00:39:16 21° NNW 00:39:16 21° NNW visible
05 Feb -2.3 23:50:34 10° NNW 23:53:18 22° NNE 23:54:09 20° NE visible
